Flag for Qatar Weather past 2 weeks in Al-Jamiliyah, Qatar

Now
92 °F

Clear.


Feels Like: 110 °F
Forecast: 83 / 107 °F
Wind: 3 mph from Southeast

Location: Al Udeid

Current Time: Jul 31, 2014 at 10:51:07 PM

Latest Report: Jul 31, 2014 at 9:58 PM


Visibility: N/A

Pressure: 29.46 "Hg

Humidity: 65%

Dew point: 79 °F

Location of Al-JamiliyahLocation

Historic Weather in Al-Jamiliyah — Graph

°F

Al-Jamiliyah temperature yesterday

Maximum temperature yesterday: 112 °F (at 2:58 PM)
Minimum temperature yesterday: 88 °F (at 4:58 AM)
Average temperature yesterday: 100 °F

Past Weeks' High & Low Weather Summary

 TemperatureHumidityPressure
High114 °F (Jul 20, 12:58 PM)92% (Jul 19, 5:58 AM)29.60 "Hg (Jul 19, 5:58 AM)
Low83 °F (Jul 17, 4:58 AM)9% (Jul 20, 12:58 PM)29.34 "Hg (Jul 17, 11:58 PM)
Average99 °F35%29.46 "Hg
* Reported Jul 16 8:58 PM — Jul 31 8:58 PM, Al-Jamiliyah, Weather by CustomWeather, © 2014

Note: Actual official high and low records may vary slightly from our data, if they occured in-between our weather recording intervals... More about our weather records

Advertising

Al-Jamiliyah weather history for previous 24 hours

 ConditionsComfort  
Time TempWeatherWind HumidityBarometerVisibility
8:58 PM
Jul 31
94 °FClear.5 mph57%29.46 "HgN/A
7:58 PM96 °FSunny.8 mph52%29.45 "HgN/A
6:58 PM98 °FSunny.8 mph48%29.43 "HgN/A
5:58 PM101 °FSunny.8 mph38%29.43 "HgN/A
4:58 PM104 °FSunny.10 mph32%29.43 "HgN/A
3:58 PM107 °FSunny.13 mph26%29.43 "HgN/A
2:58 PM108 °FSunny.14 mph29%29.42 "HgN/A
1:58 PM113 °FSunny.10 mph11%29.43 "HgN/A
12:58 PM112 °FSunny.9 mph11%29.44 "HgN/A
11:58 AM112 °FSunny.7 mph11%29.46 "HgN/A
10:58 AM110 °FSunny.6 mph11%29.47 "HgN/A
9:58 AM108 °FSunny.7 mph12%29.49 "HgN/A
8:58 AM105 °FSunny.7 mph14%29.49 "HgN/A
7:58 AM99 °FSunny.8 mph24%29.49 "HgN/A
6:58 AM93 °FSunny.8 mph32%29.48 "HgN/A
5:58 AM88 °FClear.8 mph38%29.47 "HgN/A
4:58 AM86 °FClear.7 mph41%29.45 "HgN/A
3:58 AM87 °FClear.7 mph41%29.45 "HgN/A
2:58 AM88 °FClear.7 mph41%29.44 "HgN/A
1:58 AM89 °FClear.8 mph41%29.44 "HgN/A
12:58 AM89 °FClear.8 mph48%29.45 "HgN/A
11:58 PM
Jul 30
90 °FClear.3 mph47%29.45 "HgN/A
10:58 PM92 °FClear.2 mph47%29.46 "HgN/A
Weather by CustomWeather, © 2014

See weather overviewHow to use our weather pages